AV194 Weather Reports


time (UTC)temp
F
wind
direction
speed
knots
gust
knots
rain 1hr
in
rain 24hr
in
rain mn
in
humidity
%
barometer
mb
20260504214052 71 171 1.7 9.6 0.00 0.00 0.00 32 1005.0
20260504213552 71 233 3.5 9.6 0.00 0.00 0.00 33 1005.0
20260504213059 71 296 3.5 7.0 0.00 0.00 0.00 33 1004.9
20260504212552 71 148 0.0 5.2 0.00 0.00 0.00 34 1005.0
20260504212051 71 232 0.9 6.1 0.00 0.00 0.00 34 1005.0
20260504211555 71 269 1.7 6.1 0.00 0.00 0.00 33 1005.0
20260504211053 71 205 0.9 8.7 0.00 0.00 0.00 32 1005.0
20260504210552 72 210 3.5 9.6 0.00 0.00 0.00 33 1005.0
20260504210052 72 219 2.6 9.6 0.00 0.00 0.00 33 1004.9
20260504205552 71 192 3.5 10.4 0.00 0.00 0.00 33 1005.0
20260504205049 71 82 2.6 8.7 0.00 0.00 0.00 33 1004.9
20260504204549 71 232 0.9 8.7 0.00 0.00 0.00 32 1005.0
20260504204049 72 297 1.7 7.8 0.00 0.00 0.00 32 1005.0
20260504203550 71 170 2.6 7.0 0.00 0.00 0.00 34 1005.0
20260504203049 71 214 0.9 8.7 0.00 0.00 0.00 34 1005.1
20260504202549 71 193 4.3 8.7 0.00 0.00 0.00 31 1005.2
20260504202049 71 199 0.9 6.1 0.00 0.00 0.00 32 1005.1
20260504201548 71 215 3.5 7.0 0.00 0.00 0.00 32 1005.0
20260504201048 71 179 2.6 8.7 0.00 0.00 0.00 32 1005.1
20260504200548 72 237 1.7 10.4 0.00 0.00 0.00 31 1005.1
20260504200054 72 195 5.2 10.4 0.00 0.00 0.00 33 1004.9
20260504195546 72 219 3.5 9.6 0.00 0.00 0.00 33 1005.0
20260504195045 72 159 3.5 9.6 0.00 0.00 0.00 32 1005.1
20260504194547 72 232 3.5 12.2 0.00 0.00 0.00 32 1005.2
20260504194047 73 216 5.2 12.2 0.00 0.00 0.00 32 1005.2
20260504193546 73 198 2.6 8.7 0.00 0.00 0.00 32 1005.4
20260504193044 73 280 3.5 12.2 0.00 0.00 0.00 31 1005.2
20260504192544 73 201 4.3 12.2 0.00 0.00 0.00 29 1005.2
20260504192042 74 168 4.3 9.6 0.00 0.00 0.00 33 1005.2
20260504191553 73 258 2.6 11.3 0.00 0.00 0.00 31 1005.1
20260504191042 73 163 5.2 11.3 0.00 0.00 0.00 30 1005.2
20260504190541 73 196 2.6 8.7 0.00 0.00 0.00 28 1005.1
20260504190047 73 95 2.6 9.6 0.00 0.00 0.00 29 1005.2
20260504185543 72 221 4.3 9.6 0.00 0.00 0.00 31 1005.2
20260504185039 73 312 5.2 9.6 0.00 0.00 0.00 29 1005.3
20260504184552 74 256 2.6 7.0 0.00 0.00 0.00 31 1005.4
20260504184039 74 257 2.6 7.0 0.00 0.00 0.00 32 1005.5
20260504183540 74 196 3.5 7.8 0.00 0.00 0.00 28 1005.4
20260504183047 73 242 2.6 7.8 0.00 0.00 0.00 33 1005.3
20260504182537 74 100 1.7 10.4 0.00 0.00 0.00 31 1005.5
20260504182040 74 296 5.2 10.4 0.00 0.00 0.00 28 1005.6
20260504181544 73 236 1.7 8.7 0.00 0.00 0.00 30 1005.7
20260504181036 72 201 4.3 9.6 0.00 0.00 0.00 29 1005.8
20260504180536 73 202 4.3 9.6 0.00 0.00 0.00 32 1005.9
20260504180134 74 246 4.3 9.6 0.00 0.00 0.00 30 1005.9
20260504175533 73 288 2.6 7.0 0.00 0.00 0.00 31 1005.8
20260504175035 72 279 3.5 8.7 0.00 0.00 0.00 29 1005.8
20260504174532 74 209 3.5 8.7 0.00 0.00 0.00 30 1005.8
20260504174031 73 199 2.6 7.8 0.00 0.00 0.00 36 1005.7
20260504173531 72 235 1.7 6.1 0.00 0.00 0.00 39 1005.8
20260504173029 72 5 2.6 6.1 0.00 0.00 0.00 32 1006.0
20260504172530 72 284 2.6 7.0 0.00 0.00 0.00 32 1006.1
20260504172028 72 336 1.7 7.0 0.00 0.00 0.00 32 1006.1
20260504171527 72 236 1.7 13.9 0.00 0.00 0.00 32 1006.1
20260504171028 71 286 3.5 13.9 0.00 0.00 0.00 32 1006.1
20260504170527 72 229 2.6 9.6 0.00 0.00 0.00 30 1006.1
20260504151005 66 236 2.6 8.7 0.00 0.00 0.00 38 1007.1
20260504150506 66 213 3.5 8.7 0.00 0.00 0.00 40 1007.2
20260504141051 63 340 4.3 7.8 0.00 0.00 0.00 41 1008.3
20260504140550 63 273 3.5 7.0 0.00 0.00 0.00 41 1008.1
20260504130536 58 176 3.5 7.8 0.00 0.00 0.00 48 1008.7
20260504110504 42 263 0.0 0.9 0.00 0.00 0.00 85 1009.3
20260504100555 40 274 0.0 0.0 0.00 0.00 0.00 84 1009.4
20260504081547 40 274 0.0 0.9 0.00 0.00 0.00 84 1009.3
20260504081049 40 274 0.0 0.9 0.00 0.00 0.00 84 1009.3
20260504080548 40 274 0.0 0.0 0.00 0.00 0.00 84 1009.3
20260504050526 37 265 0.9 1.7 0.00 0.00 0.00 85 1009.3
20260504050024 37 265 0.0 1.7 0.00 0.00 0.00 85 1009.3
20260504045523 36 265 0.9 1.7 0.00 0.00 0.00 85 1009.4
20260504045026 36 265 0.9 1.7 0.00 0.00 0.00 86 1009.4
20260504044530 36 265 0.0 1.7 0.00 0.00 0.00 86 1009.5
20260504044022 36 265 0.0 1.7 0.00 0.00 0.00 86 1009.4
20260504043522 36 265 0.0 1.7 0.00 0.00 0.00 85 1009.4
20260504043025 36 265 0.0 1.7 0.00 0.00 0.00 85 1009.4
20260504042522 36 265 0.0 1.7 0.00 0.00 0.00 84 1009.4
20260504042020 36 265 0.9 1.7 0.00 0.00 0.00 84 1009.4
20260504041522 36 265 0.0 1.7 0.00 0.00 0.00 84 1009.3
20260504041017 36 265 0.9 1.7 0.00 0.00 0.00 83 1009.2
20260504040517 36 265 0.0 1.7 0.00 0.00 0.00 83 1009.2
20260504040016 37 265 0.0 1.7 0.00 0.01 0.00 82 1009.2
20260504035519 37 265 0.0 1.7 0.00 0.01 0.00 82 1009.2
20260504035020 37 265 0.9 1.7 0.00 0.01 0.00 82 1009.2
20260504034515 37 265 0.0 1.7 0.00 0.01 0.00 82 1009.2
20260504034014 37 265 0.0 1.7 0.00 0.01 0.00 82 1009.2
20260504033514 37 267 0.9 1.7 0.00 0.01 0.00 81 1009.1
20260504033013 37 267 0.9 1.7 0.00 0.01 0.00 81 1009.1
20260504032513 37 266 0.9 1.7 0.00 0.01 0.00 81 1009.1
20260504032011 37 266 0.9 1.7 0.00 0.01 0.00 80 1009.0
20260504031510 38 266 0.9 1.7 0.00 0.01 0.00 80 1009.0
20260504031009 38 271 0.9 1.7 0.00 0.01 0.00 80 1009.1
20260504030508 38 271 0.9 1.7 0.00 0.01 0.00 79 1009.1
20260504030027 38 270 0.9 1.7 0.00 0.01 0.00 79 1009.1
20260504025512 38 270 0.0 1.7 0.00 0.01 0.00 79 1009.1
20260504025006 38 270 0.0 1.7 0.00 0.01 0.00 79 1009.0
20260504024508 38 270 0.9 1.7 0.00 0.01 0.00 78 1009.0
20260504024007 38 270 0.0 1.7 0.00 0.01 0.00 79 1009.0
20260504023509 38 270 0.0 1.7 0.00 0.01 0.00 78 1009.0
20260504023005 38 274 0.9 1.7 0.00 0.01 0.00 78 1008.9
20260504022504 38 278 0.9 1.7 0.00 0.01 0.00 78 1008.9
20260504022003 39 278 0.9 1.7 0.00 0.01 0.00 77 1008.9
20260504021502 39 280 0.9 1.7 0.00 0.01 0.00 77 1009.0
20260504021001 39 284 0.0 1.7 0.00 0.01 0.00 77 1008.9
20260504020503 39 286 0.9 1.7 0.00 0.01 0.00 77 1008.9
20260504015600 40 317 0.0 1.7 0.00 0.01 0.00 75 1008.7
20260504015103 40 317 0.0 1.7 0.00 0.01 0.00 74 1008.7
20260504014558 40 317 0.0 1.7 0.00 0.01 0.00 74 1008.7
20260504014057 40 317 0.0 1.7 0.00 0.01 0.00 75 1008.6
20260504013556 40 317 0.0 0.9 0.00 0.01 0.00 74 1008.6
20260504013109 40 317 0.0 0.9 0.00 0.01 0.00 73 1008.6
20260504012557 41 317 0.0 0.9 0.00 0.01 0.00 73 1008.6
20260504012057 41 317 0.0 0.9 0.00 0.01 0.00 71 1008.5
20260504011557 41 317 0.0 0.9 0.00 0.01 0.00 71 1008.4
20260504011056 41 317 0.0 1.7 0.00 0.01 0.00 72 1008.5
20260504010556 41 317 0.0 1.7 0.00 0.01 0.00 70 1008.4
20260504010112 42 340 0.0 0.0 0.00 0.01 0.00 70 1008.4
20260504005559 42 340 0.0 0.0 0.00 0.01 0.00 69 1008.2
20260504005055 42 26 0.0 0.0 0.00 0.01 0.00 70 1008.2
20260504004621 42 26 0.0 0.0 0.00 0.01 0.00 71 1008.1
20260504004055 43 26 0.0 0.0 0.00 0.01 0.00 70 1008.1
20260504003559 43 26 0.0 0.0 0.00 0.01 0.00 70 1008.0
20260504003055 43 26 0.0 0.0 0.00 0.01 0.00 65 1008.0
20260504002555 44 26 0.0 0.0 0.00 0.01 0.00 67 1007.9
20260504002056 44 26 0.0 0.0 0.00 0.01 0.00 67 1007.8
20260504001604 45 26 0.0 0.0 0.00 0.01 0.00 66 1007.9
20260504001055 45 26 0.0 0.0 0.00 0.01 0.00 63 1007.8
20260504000554 46 26 0.0 0.0 0.00 0.01 0.00 62 1007.8
20260504000055 46 26 0.0 0.0 0.00 0.02 0.00 59 1007.7
20260503235556 47 26 0.0 1.7 0.00 0.02 0.00 60 1007.6
20260503235053 47 26 0.0 1.7 0.00 0.02 0.00 59 1007.6
20260503234553 47 9 0.0 1.7 0.00 0.02 0.00 56 1007.5
20260503234053 48 11 0.0 1.7 0.00 0.02 0.00 56 1007.5
20260503233554 48 27 0.0 1.7 0.00 0.02 0.00 54 1007.3
20260503233156 48 63 0.0 0.9 0.00 0.02 0.00 55 1007.3
20260503232552 48 52 0.0 0.9 0.00 0.02 0.00 53 1007.3
20260503232052 49 63 0.0 4.3 0.00 0.02 0.00 53 1007.3
20260503231555 49 355 0.9 4.3 0.00 0.02 0.00 49 1007.3
20260503231052 50 342 0.0 3.5 0.00 0.02 0.00 48 1007.2
20260503230552 50 302 0.0 1.7 0.00 0.02 0.00 48 1007.2
20260503230059 50 313 0.9 4.3 0.00 0.02 0.00 46 1007.1
20260503225551 50 269 1.7 4.3 0.00 0.02 0.00 45 1007.0
20260503225051 50 338 0.9 5.2 0.00 0.02 0.00 48 1007.0
20260503224551 51 346 2.6 5.2 0.00 0.02 0.00 44 1007.0
20260503224051 51 35 2.6 7.8 0.00 0.02 0.00 44 1007.0
20260503223551 51 347 3.5 7.8 0.00 0.02 0.00 43 1006.9
20260503223057 51 327 2.6 4.3 0.00 0.02 0.00 45 1006.7
20260503222550 51 323 0.9 4.3 0.00 0.02 0.00 44 1006.7
20260503222050 51 334 0.9 8.7 0.00 0.02 0.00 43 1006.7
20260503221553 51 27 2.6 8.7 0.00 0.02 0.00 41 1006.6
20260503221052 52 296 3.5 8.7 0.00 0.02 0.00 42 1006.6
20260503220551 52 252 3.5 8.7 0.00 0.02 0.00 44 1006.5
20260503220049 51 336 3.5 6.1 0.00 0.02 0.00 43 1006.5
20260503215549 51 350 3.5 6.1 0.00 0.02 0.00 42 1006.5
20260503215049 52 348 1.7 8.7 0.00 0.02 0.00 43 1006.4
20260503214548 52 329 4.3 8.7 0.00 0.02 0.00 41 1006.4